Flag for Germany Weather past 2 weeks in Homberg (Efze), Hesse, Germany

Now
62 °F

Overcast.


Feels Like: 62 °F
Forecast: 51 / 67 °F
Wind: 2 mph from Northwest

Location: Fritzlar

Current Time: Sep 2, 2014 at 7:50:01 PM

Latest Report: Sep 2, 2014 at 7:00 PM


Visibility: 8 mi

Pressure: 30.18 "Hg

Humidity: 92%

Dew point: 59 °F

Location of Homberg (Efze)Location

Historic Weather in Homberg (Efze) — Graph

°F

Homberg (Efze) temperature yesterday

Maximum temperature yesterday: 63 °F (at 6:00 PM)
Minimum temperature yesterday: 48 °F (at 3:00 AM)
Average temperature yesterday: 56 °F

Past Weeks' High & Low Weather Summary

 TemperatureHumidityPressure
High72 °F (Aug 28, 5:00 PM)98% (Aug 25, 8:00 AM)30.18 "Hg (Aug 25, 8:00 AM)
Low42 °F (Aug 28, 5:00 AM)42% (Aug 20, 5:00 PM)29.69 "Hg (Aug 26, 7:00 AM)
Average57 °F79%29.98 "Hg
* Reported Aug 18 6:00 PM — Sep 2 6:00 PM, Homberg (Efze), Weather by CustomWeather, © 2014

Note: Actual official high and low records may vary slightly from our data, if they occured in-between our weather recording intervals... More about our weather records

Advertising

Homberg (Efze) weather history for previous 24 hours

 ConditionsComfort  
Time TempWeatherWind HumidityBarometerVisibility
6:00 PM
Sep 2
61 °FSprinkles. Overcast.5 mph91%30.18 "Hg2 mi
5:00 PM62 °FSprinkles. Overcast.3 mph83%30.17 "Hg7 mi
4:00 PM64 °FLight rain. Overcast.3 mph77%30.17 "Hg11 mi
3:00 PM63 °FOvercast.3 mph80%30.17 "Hg11 mi
2:00 PM62 °FOvercast.3 mph77%30.17 "Hg11 mi
1:00 PM61 °FOvercast.3 mph79%30.17 "Hg11 mi
12:00 PM60 °FDrizzle. Overcast.1 mph89%30.17 "Hg6 mi
11:00 AM59 °FLight rain. Overcast.1 mph86%30.16 "Hg3 mi
10:00 AM58 °FOvercast.2 mph87%30.16 "Hg7 mi
9:00 AM56 °FFog.1 mph95%30.16 "Hg4 mi
8:00 AM55 °FFog.3 mph97%30.15 "Hg4 mi
7:00 AM55 °FFog.1 mph97%30.14 "Hg3 mi
6:00 AM55 °FOvercast.1 mph97%30.14 "Hg3 mi
5:00 AM56 °FLight rain. Overcast.2 mph95%30.14 "Hg3 mi
4:00 AM56 °FLight rain. Overcast.2 mph95%30.14 "Hg4 mi
3:00 AM56 °FFog.1 mph94%30.14 "Hg4 mi
2:00 AM56 °FOvercast.1 mph96%30.15 "Hg5 mi
1:00 AM57 °FRain. Overcast.N/A93%30.15 "Hg3 mi
12:00 AM57 °FLight rain. Overcast.N/A91%30.15 "Hg7 mi
11:00 PM
Sep 1
58 °FLight rain. Overcast.2 mph86%30.15 "Hg9 mi
10:00 PM59 °FOvercast.2 mph84%30.14 "Hg11 mi
9:00 PM60 °FOvercast.2 mph81%30.14 "Hg12 mi
8:00 PM62 °FPartly sunny.2 mph73%30.12 "Hg16 mi
7:00 PM62 °FPartly sunny.2 mph70%30.11 "Hg16 mi
Weather by CustomWeather, © 2014

See weather overviewHow to use our weather pages